INTELSAT 17 (IS-17)

Last updated on Tue Jul 01 2025 00:02:45 GMT+0000 (Coordinated Universal Time)

1 37238U 10065B 25181.15947410 -.00000004 00000+0 00000+0 0 9996 2 37238 0.0396 78.5610 0002691 39.4324 283.8715 1.00272332 49718
UTC large
Height (km)
Speed (km/s)
/
Latitude / Longitude
Inclination (degrees)
Orbital Period (minutes)
Azimuth
Elevation
Range (km)
Doppler Factor

Next 0 passes for location: London (51.5072 / 0.1276)

Sorry there are no passes over London.